Location: Leipzig
(51.3392°N, 12.3528°E)
Time: 01:56:28
(UTC+01:00)

ISS - Pass Details

Date: 12 January 2018
Orbit: 401 x 406 km, 51.6° (Epoch: 17 January)

Event Time Altitude Azimuth Distance (km) Brightness Sun altitude
Exits shadow 06:24:54 26° 234° (SW) 840 -2.6 -15.8°
Maximum altitude 06:25:34 28° 211° (SSW) 789 -2.5 -15.7°
Drops below altitude 10° 06:28:26 10° 150° (SSE) 1,461 -0.4 -15.3°
Sets 06:30:40 0° 138° (SE) 2,318 1.0 -15.0°
